{"data":{"norad_id":67418,"intl_designator":"2026-005Q","name":"STARLINK-36455","alt_names":[],"object_type":"PAYLOAD","status":"ACTIVE","operator":null,"country":"US","launch_date":"2026-01-12","launch_site_code":"AFETR","launch_vehicle":null,"mission":null,"orbit_class":"UNKNOWN","rcs_meters":null,"size_class":null,"mass_kg":null,"dimensions":null,"purposes":["comms"],"wikipedia_slug":null,"has_3d_model":false,"image_url":null,"decayed_at":null,"tle_current":{"epoch":"2026-05-25T01:00:55.871712Z","epoch_age_seconds":71458,"freshness":"FRESH","line1":"1 67418U 26005Q   26145.04231333  .00012609  00000+0  46683-3 0  9993","line2":"2 67418  42.9993 166.7790 0000154 237.5272 122.5564 15.27585651 20370","mean_motion":15.27585651,"eccentricity":1.54e-5,"inclination_deg":42.9993,"raan_deg":166.779,"arg_perigee_deg":237.5272,"mean_anomaly_deg":122.5564,"bstar":0.00046683,"rev_number":2037,"period_min":94.26639999252,"perigee_km":482.92651295959,"apogee_km":483.13783697018,"semimajor_km":6861.1691749649,"source":"CELESTRAK","updated_at":"2026-05-25T13:38:21.555437Z"}}}